Theta_e
308 308 307 308 308 307 308 308 309 310 313 314 315 314 313 312 312 306 305 308 307 304 306 311 313 308 307 306 302 306 304 304 307 303 302 301 300 302 300 301 300 299 298 298 297 295 296 314 314 305 307 313 317 317
307 308 307 307 308 307 307 308 308 308 310 311 312 312 311 311 311 308 301 306 307 304 306 312 315 317 315 311 306 303 306 306 310 305 304 303 300 301 298 296 303 298 303 302 303 302 310 316 314 319 318 316 317 318
308 307 307 307 308 308 308 307 307 307 308 308 309 309 309 309 309 307 299 300 303 302 304 305 307 313 315 317 315 304 304 311 310 310 306 304 300 303 298 300 301 306 310 305 305 306 311 315 317 318 323 321 323 322
308 307 307 307 308 307 308 308 307 308 308 308 308 308 308 308 308 307 298 299 299 301 301 303 313 311 314 314 315 314 312 316 314 312 306 304 302 306 301 304 303 306 310 306 306 310 313 316 317 319 322 325 325 326
309 309 308 307 307 307 308 308 308 308 308 308 308 308 308 308 309 305 301 300 300 302 299 301 308 311 311 311 313 313 315 313 311 308 306 304 307 307 306 307 305 309 307 304 303 309 312 314 318 322 324 324 326 325
309 309 308 308 307 307 307 307 307 308 308 308 308 308 308 308 308 298 303 303 302 304 304 299 306 309 312 311 311 310 309 309 309 310 308 310 313 308 304 302 307 310 313 311 310 314 314 316 320 324 323 326 327 326
308 309 309 309 308 308 307 307 307 308 308 308 308 308 309 309 301 295 302 306 303 302 302 300 301 310 313 307 306 305 306 306 307 307 309 311 312 310 304 301 308 314 314 316 317 315 313 317 314 320 324 325 325 327
308 308 309 309 309 308 307 307 307 307 307 308 308 308 308 308 305 298 303 306 303 298 302 301 301 306 309 301 301 303 302 304 304 306 308 309 311 309 305 308 313 315 316 316 317 317 314 316 318 320 322 323 324 324
308 307 307 308 308 308 308 307 307 307 307 307 308 308 301 298 295 303 313 311 302 304 301 304 300 300 311 304 302 303 304 300 304 303 305 309 307 305 310 313 313 314 315 314 317 318 318 318 317 318 319 321 321 321
308 307 307 307 307 306 307 307 307 307 307 307 300 299 296 301 313 313 308 304 302 303 301 298 302 302 307 303 303 302 301 300 300 301 308 307 310 314 317 316 316 315 316 318 315 315 316 316 317 318 319 320 321 320
307 307 306 307 307 307 306 307 307 307 305 298 296 301 304 309 310 305 304 301 301 300 300 300 301 301 306 302 302 305 300 300 297 301 302 301 305 312 313 313 315 316 318 319 318 319 319 319 319 319 319 320 320 320
307 308 307 306 306 307 306 306 307 299 298 298 298 302 302 307 303 301 300 303 302 300 303 302 304 304 305 308 306 304 301 300 301 304 302 299 305 312 311 314 316 316 318 318 320 319 321 321 321 321 320 320 320 319
307 308 307 306 306 306 307 307 307 307 305 303 301 302 305 304 296 299 296 300 298 303 306 307 304 304 305 308 304 302 300 299 305 299 298 302 311 309 311 313 316 318 319 318 316 317 318 319 321 321 319 320 319 318
307 308 308 307 306 306 307 307 307 304 299 299 300 294 300 296 300 301 303 303 305 310 312 307 304 303 304 303 303 299 301 303 298 296 297 307 306 309 310 314 316 315 316 315 315 316 316 315 314 315 315 317 316 314
308 308 308 307 307 307 307 306 307 300 299 299 300 293 298 304 305 306 308 308 310 314 309 306 305 306 303 303 302 301 300 298 298 298 302 308 309 309 310 314 314 313 314 314 315 314 314 312 307 304 305 305 307 308
308 306 303 307 307 306 306 302 302 301 300 299 299 297 302 302 304 306 309 308 312 311 309 310 303 302 304 304 303 299 298 296 298 309 309 309 309 310 312 312 312 313 313 313 313 313 309 304 302 302 302 300 299 299
305 300 306 306 306 306 305 299 300 297 298 299 299 304 302 302 301 305 310 310 312 308 304 306 303 298 302 300 298 305 302 304 311 311 311 308 309 311 312 313 313 310 307 306 306 304 301 301 302 300 297 297 297 296
301 303 306 305 302 301 298 298 299 298 297 300 298 303 307 309 309 310 312 313 308 306 305 305 306 300 299 298 299 306 312 313 314 313 309 312 314 315 316 310 307 305 304 302 303 302 302 301 300 299 299 297 295 294
303 303 305 306 303 301 298 298 300 298 299 301 303 306 308 310 312 312 312 312 310 308 306 303 301 302 304 309 310 312 313 314 312 312 312 314 315 312 307 304 303 301 300 300 299 298 298 298 297 296 296 296 293 293
306 306 306 306 305 300 299 300 303 300 299 303 307 304 305 307 310 310 309 308 307 307 304 303 304 305 307 312 314 314 314 316 313 310 306 307 309 306 302 301 300 299 299 299 298 297 296 295 295 296 296 295 294 292
303 302 305 305 303 300 299 300 301 302 303 304 305 303 304 309 307 306 305 307 306 307 305 307 308 310 314 316 316 314 313 311 308 307 303 302 303 302 300 298 297 297 297 296 296 295 295 295 295 295 295 294 294 294
303 307 304 304 301 302 300 301 301 304 304 305 304 303 302 303 304 305 307 305 306 307 308 308 308 309 309 308 308 309 307 304 303 302 301 301 301 300 299 298 298 296 297 297 297 296 295 295 295 295 294 294 293 294
305 306 303 304 301 297 294 303 301 304 300 299 303 301 301 304 306 310 304 305 306 310 311 311 310 308 305 305 305 304 303 302 299 298 298 297 297 297 297 297 298 297 296 296 296 295 295 294 294 294 294 293 293 293
307 301 300 301 300 293 300 300 302 302 303 300 299 297 302 304 307 303 299 301 304 310 309 307 304 302 301 300 299 298 298 300 297 295 295 296 294 292 295 295 296 296 296 295 295 295 295 294 293 294 294 294 294 293
296 293 295 288 297 296 296 297 299 299 297 298 297 300 302 305 299 298 297 299 302 302 304 304 301 298 296 295 295 295 295 297 296 294 294 294 292 292 292 292 292 293 294 294 293 294 294 294 294 294 294 293 293 293
290 296 292 297 297 296 298 297 298 298 299 299 301 303 304 301 298 296 298 300 301 300 300 301 298 296 294 294 294 293 294 294 295 293 293 293 293 293 292 291 291 292 293 294 293 293 294 294 294 295 294 295 292 294
292 296 299 302 299 298 298 300 302 300 299 299 301 301 300 296 295 298 301 303 301 299 300 300 296 295 293 293 293 294 293 293 295 294 295 294 294 294 294 292 292 293 294 295 295 295 294 294 295 295 294 295 295 295
298 298 295 300 301 299 297 298 299 299 300 300 301 295 294 294 296 300 303 305 303 300 298 296 294 293 293 293 293 293 293 293 294 293 293 293 293 294 294 294 294 293 295 296 296 296 295 295 295 295 295 295 295 296
301 303 301 297 297 299 300 299 298 300 299 298 294 294 296 301 302 301 301 301 301 297 296 294 293 293 293 292 293 293 293 293 294 292 292 291 292 293 294 295 295 295 295 296 294 294 297 296 296 296 296 296 296 295
300 303 299 298 297 295 297 296 297 299 299 298 297 295 298 298 301 303 303 300 300 301 301 298 295 294 293 293 293 293 293 293 293 293 292 292 293 294 293 293 293 294 293 295 296 296 293 295 294 296 296 295 295 295
302 298 296 295 295 296 297 298 298 297 296 295 295 293 293 298 300 302 301 301 302 303 303 300 298 292 293 293 293 294 293 295 295 296 294 293 293 293 293 293 293 294 294 295 295 294 295 294 294 294 294 294 294 293
298 296 295 293 294 299 300 298 296 296 296 297 298 299 299 299 298 302 305 304 304 302 300 299 296 295 294 294 295 296 294 296 294 294 295 294 293 294 293 293 294 295 296 295 295 295 295 295 294 294 294 294 294 294
300 297 296 296 296 296 297 297 297 295 295 296 298 300 299 298 294 299 301 303 302 300 296 295 295 296 296 297 297 297 295 297 295 292 293 293 293 292 292 293 294 295 295 295 295 295 295 295 294 295 295 295 295 295
Wind_Speed
10 9 8 9 8 9 10 11 10 12 12 10 9 10 11 13 15 6 3 1 1 2 6 6 4 4 0 2 3 3 4 3 4 4 3 3 3 4 1 2 3 5 5 3 2 3 6 4 4 9 6 3 2 4
10 11 8 8 10 9 10 9 10 10 11 11 11 11 12 13 14 10 2 2 1 3 6 3 6 9 7 6 4 2 3 2 4 5 1 2 2 1 2 3 2 2 6 3 8 7 4 3 3 6 1 2 3 2
10 9 9 8 9 10 10 8 9 9 10 10 11 12 12 12 12 8 2 3 2 2 6 3 7 4 7 15 7 4 3 3 2 3 4 2 2 4 4 5 2 4 4 2 3 3 6 6 2 5 3 3 5 3
10 9 9 10 8 9 11 10 8 9 10 10 11 11 12 12 12 10 2 1 0 1 2 8 3 5 1 7 14 10 4 3 5 3 3 3 2 3 3 2 3 4 5 3 6 8 5 6 6 4 4 6 5 5
10 10 9 8 8 8 10 10 8 9 10 11 11 12 12 13 13 7 3 3 1 1 3 7 10 4 4 7 11 11 5 3 2 2 2 3 2 3 1 1 3 3 5 5 6 4 3 5 6 3 5 2 2 1
9 10 10 9 9 8 9 10 10 10 11 11 12 12 12 13 13 2 1 1 2 1 1 5 5 5 3 5 8 12 6 2 3 3 3 1 1 3 3 3 4 1 6 5 4 4 4 6 5 2 5 5 5 5
9 10 11 8 7 9 9 10 10 10 11 12 13 13 12 10 2 2 2 1 3 1 0 5 7 4 3 6 3 3 2 2 3 2 2 4 1 4 1 3 4 6 5 3 5 2 4 3 1 4 7 3 1 5
8 8 8 7 9 9 9 10 11 11 12 14 14 13 13 13 7 5 4 13 6 1 1 2 6 5 2 1 3 2 4 1 1 3 1 3 2 2 3 4 10 12 9 5 1 5 4 4 3 2 2 1 5 5
7 7 7 9 9 11 8 9 11 13 14 15 15 13 3 1 1 2 6 12 1 2 1 2 2 4 5 2 1 2 2 3 0 2 1 3 2 4 1 6 8 6 5 8 8 4 5 4 8 5 5 5 7 5
5 5 5 6 5 5 6 8 11 13 15 12 2 0 2 3 5 8 2 1 0 1 0 4 1 4 2 2 2 3 2 3 3 2 2 3 2 1 2 5 6 9 11 8 3 5 6 6 7 6 5 6 8 8
3 4 5 6 6 6 6 8 10 12 5 2 2 1 3 8 2 1 2 2 2 3 4 5 5 2 1 1 2 1 3 1 4 3 5 2 3 1 5 5 5 6 6 5 6 6 4 4 5 8 13 13 11 10
5 5 5 5 7 6 5 6 8 3 1 1 3 3 3 1 1 2 3 1 4 5 3 4 4 6 3 2 3 3 2 2 2 1 4 2 3 2 3 4 5 4 2 9 10 10 10 9 6 12 10 12 10 7
5 5 5 5 7 6 5 6 7 7 5 1 2 2 3 3 2 4 5 3 2 3 2 1 2 2 1 2 3 2 3 2 3 4 2 2 3 2 3 4 5 5 7 11 10 10 13 13 12 11 12 9 12 9
5 6 7 6 7 8 8 6 7 4 1 1 2 2 3 3 3 3 3 1 4 2 1 2 2 3 2 2 2 4 2 2 3 1 3 3 4 3 1 3 4 5 8 9 9 12 12 13 12 13 13 11 13 12
5 5 3 7 7 8 5 4 5 1 1 1 2 2 4 2 3 3 3 2 2 1 1 1 1 2 1 4 2 3 2 0 2 2 2 5 6 4 2 2 5 5 6 7 8 9 10 12 13 14 12 12 13 11
4 0 3 6 4 2 4 4 1 1 1 1 2 3 3 2 3 3 2 2 2 2 1 1 2 3 3 2 3 2 4 3 1 2 2 4 5 5 4 5 5 5 6 8 8 9 10 11 12 12 12 12 12 11
6 1 3 3 4 4 3 1 1 1 1 2 3 2 3 4 4 2 2 2 2 0 2 3 4 1 1 3 2 1 1 1 2 4 3 3 6 6 6 6 7 8 8 8 9 9 11 9 10 12 13 8 10 9
1 1 4 4 2 2 2 1 1 2 3 2 2 3 2 3 2 3 4 3 2 1 2 3 3 4 3 2 1 2 2 3 4 5 4 5 5 6 6 8 7 8 8 8 8 8 8 9 10 8 9 7 7 7
2 2 4 3 1 1 1 2 2 2 3 2 3 3 2 1 1 2 3 3 2 0 4 3 5 2 2 2 1 3 4 3 5 4 5 5 7 8 9 9 9 8 8 6 7 6 5 7 5 5 4 4 5 3
7 7 4 2 1 1 2 2 2 2 3 1 2 3 2 2 4 3 3 4 3 3 5 4 2 1 1 2 2 3 5 6 8 7 5 4 5 8 7 7 6 8 8 8 7 7 6 5 4 4 4 4 4 4
3 1 3 1 1 1 2 2 2 3 3 1 2 2 2 3 2 3 4 3 4 3 2 2 2 2 2 2 4 4 5 4 3 3 4 5 4 6 7 5 6 5 6 4 5 4 5 4 3 3 3 3 3 3
1 3 1 2 2 3 3 3 2 3 0 2 2 3 2 2 2 3 2 5 3 3 2 2 3 3 5 6 4 4 6 9 8 8 10 8 7 6 5 4 5 4 3 3 4 5 3 3 3 3 3 3 2 2
2 3 2 2 2 1 6 1 1 2 1 1 1 2 3 1 1 2 4 3 3 3 2 4 7 9 9 9 9 8 7 10 7 6 7 6 6 5 5 4 3 6 4 1 2 4 4 4 4 3 3 3 2 1
1 1 2 1 3 4 1 2 1 2 2 2 2 2 3 2 1 3 3 2 2 2 4 5 5 6 7 9 4 2 4 5 7 6 4 6 6 4 3 4 3 3 3 3 3 3 2 3 3 2 2 1 2 3
1 3 2 4 3 2 3 1 2 1 2 2 2 0 3 2 4 3 2 2 4 3 3 4 5 4 4 2 2 3 5 2 7 6 3 3 6 4 4 4 3 2 1 4 3 3 2 2 3 3 3 3 5 5
2 3 2 3 1 1 1 1 1 2 3 3 2 2 2 3 4 3 2 1 1 2 1 2 5 4 4 2 3 2 2 3 4 5 1 2 3 5 4 4 2 2 0 2 4 4 3 3 2 3 3 4 6 5
3 2 2 1 1 0 2 1 1 1 3 4 2 2 3 4 3 1 1 1 1 1 1 1 2 4 4 3 3 3 3 3 4 4 4 3 2 2 3 4 3 4 4 4 3 3 4 3 2 3 3 3 4 4
1 1 0 4 2 2 2 2 3 4 2 3 3 4 2 2 2 2 2 1 2 3 4 3 4 4 4 4 4 4 4 4 6 6 4 3 2 2 3 2 1 2 2 3 3 3 4 4 4 4 4 5 7 5
1 1 1 4 3 4 3 3 3 2 2 1 3 2 2 1 1 1 1 2 3 4 4 5 4 3 4 4 3 2 3 4 6 5 4 2 2 3 1 2 2 1 2 3 6 6 7 6 5 6 7 5 6 6
2 1 3 3 4 4 3 1 2 2 3 3 3 3 2 2 1 1 2 2 3 4 3 4 4 4 4 4 3 2 1 2 3 4 4 4 4 2 1 0 1 1 1 2 3 3 2 3 1 1 1 2 2 3
2 3 4 4 3 2 3 2 3 2 2 3 3 4 2 3 1 0 1 1 3 3 4 3 2 3 5 5 4 4 1 1 2 4 3 3 3 2 1 0 0 0 0 1 2 3 3 3 2 3 5 6 6 5
4 3 3 3 2 3 2 3 3 3 4 4 4 2 2 3 3 1 3 3 1 1 3 4 4 5 5 2 3 2 3 4 5 4 6 3 3 3 2 2 1 0 1 2 2 2 2 3 4 5 6 8 8 8
3 3 3 2 3 4 3 3 3 3 5 3 3 1 2 2 2 3 2 3 3 4 5 5 4 4 7 7 7 4 5 4 6 7 8 7 6 5 3 3 2 2 3 3 4 4 5 7 7 8 9 9 9 10
Wind_Direction
327 312 304 320 326 335 347 359 3 357 2 4 9 14 10 11 7 19 272 273 106 240 271 214 230 210 258 128 162 270 24 339 43 71 135 197 166 218 192 266 188 175 150 211 87 94 265 132 98 170 206 289 237 173
310 324 314 310 327 314 324 338 356 358 0 6 360 357 1 3 3 10 315 343 339 189 250 246 236 233 222 178 131 296 185 206 180 97 134 115 130 90 138 252 357 269 184 209 186 220 251 283 285 289 211 217 276 239
292 303 315 314 314 325 325 322 331 340 352 348 345 345 349 351 355 8 288 301 335 337 298 352 237 251 227 229 182 163 277 159 157 163 146 153 166 134 167 239 211 244 154 223 6 270 238 249 225 252 273 287 316 336
275 282 294 312 315 317 321 329 319 329 330 328 333 336 340 340 340 345 290 241 59 127 306 279 314 285 239 168 194 200 131 70 106 89 111 138 174 172 205 188 187 211 130 214 266 290 294 244 230 255 315 354 328 355
272 275 278 289 305 311 315 320 327 322 322 323 324 322 326 329 328 310 209 228 246 145 262 285 311 269 252 178 187 186 139 132 128 77 98 213 145 109 356 74 250 175 215 169 225 235 222 270 313 162 126 198 23 108
283 264 270 267 282 299 312 314 312 314 317 316 315 315 320 325 337 315 321 79 228 179 307 304 298 291 334 135 142 171 161 112 90 131 229 233 194 113 165 227 205 268 238 197 270 310 233 299 359 90 120 130 140 138
266 283 270 281 277 283 296 308 310 308 308 309 310 311 310 312 26 228 265 88 153 272 145 305 315 273 299 115 115 112 158 210 138 187 232 139 208 132 172 230 287 255 228 247 219 194 358 42 158 62 82 38 190 132
260 292 279 287 288 282 283 298 307 306 306 304 303 302 300 296 272 277 237 228 167 317 66 279 275 331 25 135 113 165 126 125 308 190 359 133 139 221 230 268 333 343 318 284 45 221 220 238 152 167 132 117 81 103
258 278 289 292 290 290 272 296 305 304 304 299 295 300 322 113 195 270 30 129 133 151 270 231 264 263 358 5 127 56 114 126 316 143 236 86 338 233 344 321 324 314 293 295 310 7 28 333 310 300 182 184 111 92
253 278 300 308 298 301 304 304 307 309 306 310 85 91 297 224 302 140 241 92 48 269 86 233 232 258 84 358 28 80 26 149 137 251 103 70 257 347 343 324 302 298 299 289 253 5 5 29 16 353 351 38 103 91
261 298 288 301 304 289 284 302 317 326 331 13 11 249 321 309 148 171 200 186 172 250 194 235 196 238 276 103 168 104 162 148 121 244 131 201 254 246 3 346 333 315 314 17 67 57 51 127 104 66 53 60 60 76
283 273 271 309 320 306 301 313 333 19 296 236 269 281 281 236 91 189 210 173 204 234 204 192 228 199 272 126 103 340 113 52 120 154 107 191 233 94 24 348 334 350 66 68 54 54 43 41 69 97 90 86 70 56
301 264 258 284 303 317 320 308 315 299 309 189 220 249 199 181 171 205 189 222 240 219 222 297 285 202 359 61 67 99 90 196 122 54 206 232 119 93 14 341 9 21 45 56 60 63 53 55 41 59 81 82 81 70
270 291 258 268 291 301 305 304 322 342 326 259 233 207 226 185 258 208 207 252 253 202 308 182 246 180 190 97 143 100 229 86 84 111 229 175 163 170 318 19 50 52 64 66 59 63 75 70 63 56 56 60 75 64
271 297 278 284 283 294 272 304 327 27 303 274 278 217 229 270 265 265 271 282 260 311 61 117 15 137 27 103 43 115 101 67 174 218 218 165 164 165 132 43 68 68 81 80 77 72 76 80 73 63 52 61 67 70
254 37 268 279 302 359 349 343 14 294 277 271 256 288 258 302 311 342 329 302 343 1 198 59 98 80 52 82 74 33 134 195 232 199 111 124 135 141 124 99 89 73 62 74 74 92 81 75 78 79 68 60 64 68
115 261 338 0 348 338 338 35 353 252 291 255 252 223 254 260 247 266 297 298 333 300 115 86 12 51 71 77 84 22 147 217 117 113 100 110 124 123 122 101 88 82 74 75 80 72 78 75 85 80 76 62 69 68
41 312 347 358 40 11 359 154 267 267 262 239 251 276 248 236 287 314 340 341 330 132 117 142 128 55 58 92 196 188 91 85 90 108 104 102 104 97 99 104 91 96 95 84 87 85 81 82 81 83 91 90 81 62
276 268 323 348 27 342 298 235 194 275 252 268 264 273 277 281 153 286 270 266 225 207 92 43 72 69 83 9 58 80 113 114 113 71 56 42 85 97 96 93 92 87 80 73 80 79 68 66 91 102 99 88 90 75
288 272 258 259 332 0 270 241 169 262 276 293 293 345 1 355 313 336 346 9 12 53 42 36 52 35 334 11 49 96 106 116 107 95 74 48 60 94 100 113 105 106 97 92 79 79 87 75 54 84 93 97 100 94
326 270 135 152 345 202 279 300 251 231 307 330 326 17 11 349 358 354 16 334 53 37 63 13 353 4 340 44 82 83 75 87 90 108 121 104 81 108 95 78 80 76 98 98 106 84 81 106 125 101 100 100 108 132
273 183 124 192 266 197 253 217 250 291 333 323 22 10 35 350 9 15 341 39 51 18 30 39 44 35 69 47 27 48 103 89 94 91 89 110 120 112 110 119 107 100 99 124 128 133 131 144 145 135 124 124 112 134
305 193 233 224 262 359 263 169 304 12 81 34 62 15 330 267 62 346 73 41 60 357 29 41 45 51 78 63 34 30 44 94 80 82 84 84 80 80 98 91 104 123 116 94 130 136 144 160 160 146 141 131 140 197
277 299 267 266 199 264 229 36 17 328 113 85 86 269 236 48 69 63 65 36 335 331 41 69 93 87 54 47 35 328 9 82 93 67 40 104 94 58 82 107 106 92 103 122 135 131 136 146 148 158 177 207 232 251
333 288 105 296 233 269 96 211 268 203 76 70 250 341 48 41 72 62 53 19 357 24 28 63 67 51 109 111 59 44 23 90 126 112 27 83 109 82 63 64 69 69 129 117 131 152 181 189 197 213 219 222 242 252
258 218 158 319 357 40 121 189 152 114 198 219 152 97 88 82 64 64 61 158 1 40 64 107 126 107 60 50 113 66 29 37 94 93 103 146 121 125 133 121 93 346 179 150 134 145 163 186 214 204 218 250 260 261
338 355 302 257 211 232 61 29 120 267 17 39 43 63 72 78 86 97 181 225 107 36 6 48 81 100 120 95 63 31 23 49 114 134 127 127 97 88 133 152 178 223 173 171 174 176 180 204 241 266 274 273 250 253
280 322 20 321 45 33 77 45 23 24 26 9 53 37 70 75 114 179 174 126 75 76 91 77 71 98 109 113 121 112 71 69 78 83 79 63 51 32 47 74 72 107 175 207 216 216 215 226 247 263 269 272 282 268
153 178 136 32 37 45 45 20 358 1 339 57 103 99 99 40 97 125 139 137 114 113 97 92 47 71 74 76 70 72 131 137 124 136 150 192 315 292 311 275 278 285 266 283 288 261 252 245 246 248 259 262 277 285
26 343 83 49 46 21 329 263 292 345 39 81 107 72 69 31 30 100 110 109 110 106 125 136 143 144 148 145 136 88 7 216 195 151 166 210 221 197 182 190 271 290 297 285 297 315 295 251 254 39 290 303 290 297
71 60 61 43 72 297 270 302 12 63 57 58 53 94 123 121 66 61 134 135 135 134 131 123 119 154 142 153 157 133 89 316 172 161 139 124 133 159 218 255 217 158 5 6 10 3 342 334 295 284 297 298 297 297
36 56 93 68 358 301 13 50 43 63 29 40 27 46 67 67 77 229 192 150 127 234 241 173 184 214 213 116 138 153 196 163 177 176 157 159 183 205 193 177 188 207 323 326 318 300 285 287 275 269 274 282 285 284
48 38 57 68 24 11 333 73 44 45 26 37 22 36 80 108 145 250 287 207 194 205 193 191 197 169 166 177 196 194 190 191 184 181 191 190 187 185 184 202 224 259 291 296 286 274 278 279 278 280 280 276 283 291